When you browse on this site, cookies collect data to enhance your experience and personalize the content and advertising you see.
Visit our Privacy Policy to learn more. By continuing to use the site, you agree to this use of cookies and data.

Meteo orario Tysovets'

Oggi, 12 Agosto, Mercoledi

Tempo Temperatura Precipitazioni Vento Pressione Umidità
00:00 +20°C° 0 mm 2 m/s 737 mm Hg 93%
01:00 +19°C° 0 mm 2 m/s 737 mm Hg 95%
02:00 +19°C° 0 mm 2 m/s 737 mm Hg 97%
03:00 +18°C° 0 mm 3 m/s 738 mm Hg 100%
04:00 +18°C° 0 mm 3 m/s 738 mm Hg 100%
05:00 +18°C° 0 mm 3 m/s 738 mm Hg 100%
06:00 +18°C° 0 mm 3 m/s 738 mm Hg 100%
07:00 +18°C° 0 mm 3 m/s 738 mm Hg 100%
08:00 +18°C° 0 mm 3 m/s 738 mm Hg 100%
09:00 +18°C° 0 mm 3 m/s 738 mm Hg 100%
10:00 +18°C° 0 mm 3 m/s 739 mm Hg 100%
11:00 +19°C° 0 mm 3 m/s 739 mm Hg 98%
12:00 +19°C° 0 mm 3 m/s 740 mm Hg 97%
13:00 +20°C° 0 mm 3 m/s 740 mm Hg 94%
14:00 +21°C° 0.4 mm 4 m/s 739 mm Hg 90%
15:00 +21°C° 0.1 mm 4 m/s 739 mm Hg 88%
16:00 +21°C° 0.2 mm 5 m/s 739 mm Hg 87%
17:00 +21°C° 0 mm 4 m/s 739 mm Hg 81%
18:00 +21°C° 0 mm 4 m/s 739 mm Hg 84%
19:00 +20°C° 0.3 mm 1 m/s 739 mm Hg 91%
20:00 +20°C° 0.3 mm 1 m/s 740 mm Hg 96%
21:00 +19°C° 0 mm 1 m/s 740 mm Hg 95%
22:00 +19°C° 0 mm 1 m/s 740 mm Hg 97%
23:00 +18°C° 0 mm 1 m/s 740 mm Hg 97%

Domani, 13 Agosto, Giovedi

Tempo Temperatura Precipitazioni Vento Pressione Umidità
00:00 +16°C° 0 mm 1 m/s 740 mm Hg 98%
01:00 +16°C° 0 mm 1 m/s 740 mm Hg 96%
02:00 +15°C° 0 mm 1 m/s 740 mm Hg 99%
03:00 +15°C° 0 mm 1 m/s 740 mm Hg 100%
04:00 +14°C° 0 mm 1 m/s 740 mm Hg 100%
05:00 +14°C° 0 mm 1 m/s 740 mm Hg 100%
06:00 +14°C° 0 mm 1 m/s 740 mm Hg 100%
07:00 +13°C° 0 mm 0 m/s 740 mm Hg 100%
08:00 +14°C° 0 mm 0 m/s 740 mm Hg 100%
09:00 +15°C° 0 mm 0 m/s 740 mm Hg 99%
10:00 +17°C° 0 mm 0 m/s 741 mm Hg 96%
11:00 +20°C° 0 mm 1 m/s 741 mm Hg 92%
12:00 +21°C° 0 mm 1 m/s 741 mm Hg 85%
13:00 +21°C° 0 mm 1 m/s 740 mm Hg 80%
14:00 +22°C° 0 mm 1 m/s 740 mm Hg 78%
15:00 +22°C° 0 mm 1 m/s 740 mm Hg 76%
16:00 +23°C° 0 mm 1 m/s 739 mm Hg 78%
17:00 +22°C° 0 mm 1 m/s 739 mm Hg 80%
18:00 +22°C° 0 mm 1 m/s 739 mm Hg 83%
19:00 +21°C° 0 mm 1 m/s 739 mm Hg 88%
20:00 +21°C° 0 mm 1 m/s 739 mm Hg 93%
21:00 +20°C° 0 mm 1 m/s 739 mm Hg 95%
22:00 +19°C° 0 mm 1 m/s 739 mm Hg 95%
23:00 +19°C° 0 mm 1 m/s 739 mm Hg 95%

Dopodomani, 14 Agosto, Venerdi

Tempo Temperatura Precipitazioni Vento Pressione Umidità
00:00 +19°C° 0 mm 1 m/s 739 mm Hg 95%
01:00 +18°C° 0 mm 1 m/s 738 mm Hg 95%
02:00 +18°C° 0 mm 1 m/s 738 mm Hg 96%
03:00 +18°C° 0 mm 1 m/s 738 mm Hg 97%
04:00 +18°C° 0 mm 1 m/s 738 mm Hg 98%
05:00 +16°C° 0 mm 1 m/s 738 mm Hg 99%
06:00 +16°C° 0 mm 1 m/s 737 mm Hg 100%
07:00 +16°C° 0 mm 1 m/s 738 mm Hg 99%
08:00 +19°C° 0 mm 1 m/s 738 mm Hg 98%
09:00 +19°C° 0 mm 2 m/s 738 mm Hg 97%
10:00 +20°C° 0 mm 3 m/s 738 mm Hg 96%
11:00 +21°C° 0 mm 3 m/s 738 mm Hg 93%
12:00 +21°C° 0 mm 3 m/s 738 mm Hg 92%
13:00 +22°C° 0 mm 3 m/s 738 mm Hg 91%
14:00 +22°C° 0 mm 3 m/s 737 mm Hg 88%
15:00 +22°C° 0.1 mm 3 m/s 737 mm Hg 93%
16:00 +24°C° 0.1 mm 3 m/s 737 mm Hg 86%
17:00 +22°C° 0.1 mm 3 m/s 737 mm Hg 88%
18:00 +22°C° 0 mm 3 m/s 737 mm Hg 87%
19:00 +21°C° 0 mm 2 m/s 737 mm Hg 92%
20:00 +21°C° 0 mm 2 m/s 737 mm Hg 94%
21:00 +20°C° 0 mm 2 m/s 737 mm Hg 97%
22:00 +19°C° 0 mm 2 m/s 737 mm Hg 99%
23:00 +19°C° 0 mm 2 m/s 737 mm Hg 100%

15 Agosto, Sabato

Tempo Temperatura Precipitazioni Vento Pressione Umidità
00:00 +18°C° 0 mm 2 m/s 737 mm Hg 100%
01:00 +18°C° 0 mm 3 m/s 737 mm Hg 99%
02:00 +18°C° 0 mm 3 m/s 736 mm Hg 100%
03:00 +18°C° 0 mm 3 m/s 736 mm Hg 100%
04:00 +18°C° 0 mm 3 m/s 736 mm Hg 100%
05:00 +18°C° 0 mm 4 m/s 736 mm Hg 100%
06:00 +18°C° 0 mm 4 m/s 735 mm Hg 99%
07:00 +17°C° 0 mm 5 m/s 736 mm Hg 98%
08:00 +17°C° 0 mm 5 m/s 735 mm Hg 98%
09:00 +17°C° 0.1 mm 5 m/s 735 mm Hg 100%
10:00 +18°C° 1.1 mm 4 m/s 736 mm Hg 100%
11:00 +19°C° 1.7 mm 4 m/s 736 mm Hg 98%
12:00 +19°C° 1.8 mm 5 m/s 736 mm Hg 98%
13:00 +19°C° 1.9 mm 6 m/s 735 mm Hg 98%
14:00 +17°C° 8.6 mm 6 m/s 735 mm Hg 98%
15:00 +17°C° 7 mm 6 m/s 735 mm Hg 100%
16:00 +16°C° 1.3 mm 6 m/s 734 mm Hg 100%
17:00 +16°C° 0 mm 6 m/s 735 mm Hg 100%
18:00 +16°C° 0 mm 6 m/s 735 mm Hg 100%
19:00 +16°C° 0 mm 6 m/s 735 mm Hg 100%
20:00 +16°C° 0.1 mm 6 m/s 735 mm Hg 100%
21:00 +16°C° 0 mm 6 m/s 735 mm Hg 100%
22:00 +16°C° 0 mm 6 m/s 735 mm Hg 100%
23:00 +16°C° 0.3 mm 5 m/s 735 mm Hg 100%

16 Agosto, Domenica

Tempo Temperatura Precipitazioni Vento Pressione Umidità
00:00 +16°C° 0.6 mm 5 m/s 735 mm Hg 100%
01:00 +16°C° 0.1 mm 6 m/s 735 mm Hg 100%
02:00 +16°C° 0 mm 5 m/s 735 mm Hg 100%
03:00 +16°C° 0 mm 5 m/s 736 mm Hg 100%
04:00 +16°C° 0 mm 6 m/s 736 mm Hg 100%
05:00 +15°C° 0 mm 5 m/s 736 mm Hg 100%
06:00 +15°C° 0 mm 5 m/s 736 mm Hg 100%
07:00 +16°C° 0 mm 5 m/s 737 mm Hg 99%
08:00 +16°C° 0 mm 6 m/s 737 mm Hg 98%
09:00 +17°C° 0 mm 5 m/s 737 mm Hg 97%
10:00 +19°C° 0 mm 5 m/s 738 mm Hg 96%
11:00 +19°C° 0 mm 5 m/s 738 mm Hg 95%
12:00 +20°C° 0 mm 6 m/s 738 mm Hg 92%
13:00 +21°C° 0 mm 6 m/s 738 mm Hg 87%
14:00 +21°C° 0 mm 6 m/s 738 mm Hg 85%
15:00 +21°C° 0 mm 6 m/s 738 mm Hg 87%
16:00 +21°C° 1 mm 5 m/s 738 mm Hg 93%
17:00 +21°C° 0.3 mm 5 m/s 738 mm Hg 91%
18:00 +20°C° 0 mm 5 m/s 738 mm Hg 91%
19:00 +20°C° 0 mm 5 m/s 738 mm Hg 93%
20:00 +19°C° 0 mm 4 m/s 738 mm Hg 94%
21:00 +19°C° 0 mm 4 m/s 739 mm Hg 96%
22:00 +18°C° 0 mm 3 m/s 739 mm Hg 97%
23:00 +18°C° 0 mm 3 m/s 739 mm Hg 97%

17 Agosto, Lunedi

Tempo Temperatura Precipitazioni Vento Pressione Umidità
00:00 +18°C° 0 mm 3 m/s 739 mm Hg 97%
01:00 +18°C° 0 mm 3 m/s 739 mm Hg 97%
02:00 +17°C° 0 mm 2 m/s 740 mm Hg 97%
03:00 +17°C° 0 mm 2 m/s 740 mm Hg 98%
04:00 +16°C° 0 mm 2 m/s 740 mm Hg 99%
05:00 +16°C° 0 mm 3 m/s 739 mm Hg 99%
06:00 +16°C° 0 mm 3 m/s 739 mm Hg 99%
07:00 +17°C° 0 mm 3 m/s 740 mm Hg 96%
08:00 +18°C° 0 mm 4 m/s 740 mm Hg 94%
09:00 +19°C° 0 mm 4 m/s 740 mm Hg 92%
10:00 +20°C° 0 mm 4 m/s 740 mm Hg 89%
11:00 +21°C° 0 mm 4 m/s 740 mm Hg 85%
12:00 +22°C° 0 mm 4 m/s 740 mm Hg 84%
13:00 +22°C° 0 mm 5 m/s 740 mm Hg 82%
14:00 +22°C° 0 mm 5 m/s 740 mm Hg 82%
15:00 +22°C° 0 mm 5 m/s 740 mm Hg 83%
16:00 +22°C° 0 mm 4 m/s 739 mm Hg 83%
17:00 +22°C° 0 mm 4 m/s 739 mm Hg 84%
18:00 +22°C° 0 mm 4 m/s 739 mm Hg 85%
19:00 +21°C° 0 mm 4 m/s 738 mm Hg 90%
20:00 +20°C° 0 mm 3 m/s 738 mm Hg 94%
21:00 +19°C° 0 mm 3 m/s 738 mm Hg 97%
22:00 +19°C° 0 mm 3 m/s 738 mm Hg 97%
23:00 +18°C° 0 mm 3 m/s 738 mm Hg 96%
Mostrare altro